Terminal Aerodrome Forecast
Issued by NWS Pittsburgh, PA

Current Version | Previous Version | Graphics & Text | Print | Product List | Glossary On
Versions: 1 2 3 4 5 6 7 8 9 10 11 12 13 14 15 16 17 18 19 20 21 22 23 24 25 26 27 28
000
FTUS41 KPBZ 250900 AAA
TAFPIT
TAF AMD
KPIT 250923Z 2509/2612 22010KT P6SM FEW035 WS020/26040KT
     FM251500 24010G20KT P6SM SKC
     FM252200 26008KT P6SM SCT035
     FM260000 32005KT P6SM FEW030=

USA.gov is the U.S. government's official web portal to all federal, state and local government web resources and services.